FW0454 Weather Reports


Display with metric or nautical units.
time (UTC)temp
F
wind
direction
speed
MPH
gust
MPH
rain 1hr
in
rain 24hr
in
rain mn
in
humidity
%
barometer
mb
20181017002828 50 190 2.0 5.0 0.00 0.08 0.00 94 1014.2
20181017002317 50 156 3.0 5.0 0.00 0.08 0.00 95 1014.2
20181017001824 50 150 1.0 5.0 0.00 0.08 0.00 94 1014.2
20181017001319 50 163 2.0 7.0 0.00 0.08 0.00 94 1014.2
20181017000828 50 183 2.0 7.0 0.00 0.08 0.00 94 1014.1
20181017000316 50 212 2.0 7.0 0.00 0.08 0.00 95 1014.2
20181016235826 50 205 3.0 10.0 0.00 0.08 0.02 95 1014.1
20181016235320 51 223 3.0 10.0 0.00 0.08 0.02 95 1014.2
20181016234832 51 148 2.0 7.0 0.00 0.08 0.02 95 1014.2
20181016234319 51 138 1.0 3.0 0.00 0.08 0.02 95 1014.2
20181016233829 51 178 1.0 4.0 0.00 0.08 0.02 95 1014.2
20181016233322 51 179 1.0 4.0 0.00 0.08 0.02 95 1014.3
20181016232831 51 185 0.0 5.0 0.00 0.08 0.02 95 1014.2
20181016232321 51 228 3.0 5.0 0.00 0.08 0.02 95 1014.2
20181016231814 51 188 2.0 5.0 0.00 0.08 0.02 95 1014.3
20181016231325 51 153 2.0 5.0 0.00 0.08 0.02 94 1014.2
20181016230819 51 169 2.0 5.0 0.00 0.08 0.02 94 1014.2
20181016230324 51 211 1.0 4.0 0.00 0.08 0.02 94 1014.1
20181016225831 51 207 2.0 5.0 0.00 0.08 0.02 94 1014.1
20181016225319 51 211 1.0 5.0 0.00 0.08 0.02 94 1014.2
20181016224830 51 197 1.0 3.0 0.00 0.08 0.02 94 1014.1
20181016224320 51 194 2.0 6.0 0.00 0.08 0.02 94 1014.2
20181016223829 51 213 2.0 6.0 0.00 0.08 0.02 94 1014.1
20181016223320 51 215 3.0 6.0 0.00 0.08 0.02 94 1014.1
20181016222813 51 181 1.0 4.0 0.00 0.08 0.02 94 1014.1
20181016222327 51 196 2.0 5.0 0.00 0.08 0.02 93 1014.1
20181016221818 51 204 3.0 5.0 0.00 0.08 0.02 93 1014.1
20181016221328 51 188 1.0 6.0 0.00 0.08 0.02 93 1014.1
20181016220819 51 214 3.0 7.0 0.00 0.08 0.02 93 1014.1
20181016220325 51 184 3.0 10.0 0.00 0.08 0.02 93 1014.1
20181016215817 52 195 3.0 8.0 0.00 0.08 0.02 92 1014.0
20181016215329 52 191 4.0 7.0 0.00 0.08 0.02 92 1014.0
20181016214819 52 286 3.0 7.0 0.00 0.08 0.02 92 1014.0
20181016214332 52 251 3.0 7.0 0.00 0.08 0.02 91 1014.0
20181016213820 52 209 3.0 6.0 0.00 0.08 0.02 91 1013.9
20181016213330 52 198 2.0 8.0 0.00 0.08 0.02 91 1014.0
20181016212818 52 214 3.0 9.0 0.00 0.08 0.02 91 1013.9
20181016212329 52 180 3.0 9.0 0.00 0.08 0.02 91 1013.9
20181016211818 52 188 4.0 9.0 0.00 0.08 0.02 91 1013.9
20181016211331 52 184 5.0 9.0 0.00 0.08 0.02 91 1014.0
20181016210818 52 178 3.0 9.0 0.00 0.08 0.02 91 1013.9
20181016210323 52 217 4.0 7.0 0.00 0.08 0.02 91 1014.0
20181016205816 52 219 3.0 9.0 0.00 0.08 0.02 91 1014.0
20181016205327 52 210 3.0 9.0 0.00 0.08 0.02 92 1013.9
20181016204815 52 206 2.0 8.0 0.00 0.08 0.02 91 1013.9
20181016204325 52 214 4.0 8.0 0.00 0.08 0.02 92 1013.8
20181016203814 52 201 3.0 7.0 0.00 0.08 0.02 92 1013.8
20181016203324 52 246 4.0 8.0 0.00 0.08 0.02 92 1013.8
20181016202814 52 185 4.0 8.0 0.00 0.08 0.02 92 1013.8
20181016202324 52 209 4.0 8.0 0.00 0.08 0.02 92 1013.8
20181016195318 53 202 5.0 11.0 0.00 0.08 0.02 94 1013.6
20181016194829 53 199 5.0 11.0 0.00 0.08 0.02 94 1013.7
20181016194320 53 184 5.0 7.0 0.00 0.08 0.02 94 1013.7
20181016193831 53 144 2.0 10.0 0.00 0.08 0.02 94 1013.7
20181016193322 53 202 4.0 10.0 0.00 0.08 0.02 94 1013.7
20181016192832 52 175 3.0 10.0 0.00 0.08 0.02 94 1013.5
20181016192327 52 134 4.0 7.0 0.00 0.08 0.02 94 1013.6
20181016191817 52 148 4.0 8.0 0.00 0.08 0.02 95 1013.5
20181016191331 52 214 3.0 7.0 0.00 0.08 0.02 95 1013.4
20181016190821 52 173 3.0 7.0 0.00 0.08 0.02 94 1013.3
20181016190329 52 175 1.0 6.0 0.00 0.08 0.02 94 1013.3
20181016185819 52 178 3.0 8.0 0.00 0.08 0.02 94 1013.3
20181016185329 52 168 2.0 7.0 0.00 0.08 0.02 93 1013.4
20181016184820 53 200 2.0 9.0 0.00 0.08 0.02 93 1013.4
20181016184335 53 214 5.0 9.0 0.00 0.08 0.02 93 1013.3
20181016183826 53 214 3.0 7.0 0.00 0.08 0.02 93 1013.3
20181016183335 53 175 2.0 7.0 0.00 0.08 0.02 93 1013.3
20181016182826 53 225 1.0 6.0 0.00 0.08 0.02 93 1013.3
20181016182316 54 207 3.0 7.0 0.00 0.08 0.02 93 1013.3
20181016181827 54 165 2.0 8.0 0.00 0.08 0.02 93 1013.3
20181016181319 54 159 3.0 8.0 0.00 0.08 0.02 93 1013.3
20181016180829 54 206 4.0 7.0 0.00 0.08 0.02 93 1013.3
20181016180322 54 211 2.0 7.0 0.00 0.08 0.02 93 1013.3
20181016175833 54 227 2.0 7.0 0.00 0.08 0.02 94 1013.2
20181016175324 54 189 3.0 6.0 0.00 0.08 0.02 94 1013.2
20181016174814 54 181 2.0 6.0 0.00 0.08 0.02 94 1013.2
20181016174328 54 237 3.0 6.0 0.00 0.08 0.02 94 1013.2
20181016173818 54 205 3.0 8.0 0.00 0.08 0.02 94 1013.2
20181016173329 54 176 4.0 8.0 0.00 0.08 0.02 93 1013.3
20181016172820 54 189 3.0 7.0 0.00 0.08 0.02 93 1013.3
20181016172315 55 156 3.0 10.0 0.00 0.08 0.02 93 1013.2
20181016171829 55 247 3.0 10.0 0.00 0.08 0.02 94 1013.2
20181016171320 55 188 2.0 9.0 0.00 0.08 0.02 94 1013.2
20181016170831 55 215 3.0 9.0 0.00 0.08 0.02 94 1013.2
20181016170321 55 185 4.0 12.0 0.00 0.08 0.02 93 1013.2
20181016165832 55 196 4.0 12.0 0.00 0.12 0.02 94 1013.4
20181016165322 55 221 4.0 8.0 0.00 0.12 0.02 94 1013.2
20181016164833 55 187 5.0 8.0 0.00 0.12 0.02 94 1013.2
20181016164324 55 216 3.0 7.0 0.00 0.12 0.02 94 1013.1
20181016163818 55 140 2.0 7.0 0.00 0.12 0.02 94 1013.1
20181016163332 56 149 2.0 8.0 0.00 0.12 0.02 94 1013.1
20181016162822 56 198 3.0 8.0 0.00 0.12 0.02 94 1013.1
20181016162334 56 183 2.0 4.0 0.00 0.12 0.02 94 1013.1
20181016161824 56 168 1.0 6.0 0.00 0.12 0.02 94 1013.0
20181016161318 56 218 3.0 6.0 0.00 0.12 0.02 94 1013.1
20181016160828 56 229 2.0 5.0 0.00 0.12 0.02 94 1013.1
20181016160318 56 211 2.0 5.0 0.00 0.12 0.02 94 1013.0
20181016155832 56 181 3.0 5.0 0.00 0.12 0.02 94 1013.0
20181016155321 56 212 1.0 6.0 0.00 0.12 0.02 94 1013.0
20181016154830 56 190 3.0 6.0 0.00 0.12 0.02 94 1013.0
20181016154321 56 198 3.0 6.0 0.00 0.12 0.02 94 1013.1
20181016153832 56 165 2.0 7.0 0.00 0.12 0.02 94 1013.1
20181016153323 56 215 4.0 7.0 0.00 0.12 0.02 93 1013.1
20181016152817 56 163 1.0 5.0 0.00 0.12 0.02 94 1013.1
20181016152329 56 195 1.0 4.0 0.00 0.12 0.02 94 1013.1
20181016151822 56 94 1.0 5.0 0.00 0.12 0.02 93 1013.0
20181016151335 56 147 2.0 11.0 0.00 0.12 0.02 93 1013.0
20181016150826 56 192 3.0 11.0 0.00 0.12 0.02 93 1013.0
20181016150334 56 197 3.0 11.0 0.00 0.12 0.02 93 1013.0
20181016145824 56 202 2.0 11.0 0.00 0.12 0.02 93 1013.0
20181016145335 56 172 4.0 8.0 0.00 0.12 0.02 93 1013.1
20181016144826 56 169 2.0 6.0 0.00 0.12 0.02 93 1013.2
20181016144317 56 188 3.0 7.0 0.00 0.12 0.02 93 1013.2
20181016143828 56 170 3.0 7.0 0.00 0.12 0.02 93 1013.2
20181016143324 56 257 2.0 7.0 0.00 0.12 0.02 93 1013.3
20181016142814 56 185 3.0 8.0 0.00 0.12 0.02 93 1013.3
20181016142325 56 127 4.0 10.0 0.00 0.12 0.02 92 1013.4
20181016141816 56 221 3.0 8.0 0.00 0.12 0.02 93 1013.4
20181016141329 56 164 2.0 7.0 0.00 0.12 0.02 92 1013.4
20181016140820 56 190 2.0 6.0 0.00 0.12 0.02 92 1013.4
20181016140326 56 239 3.0 6.0 0.00 0.12 0.02 92 1013.4
20181016135816 57 167 3.0 6.0 0.00 0.12 0.02 93 1013.4
20181016135331 57 119 2.0 8.0 0.00 0.12 0.02 93 1013.4
20181016134823 57 278 4.0 8.0 0.00 0.12 0.02 93 1013.4
20181016134332 57 175 3.0 7.0 0.00 0.12 0.02 93 1013.4
20181016133822 56 169 3.0 7.0 0.00 0.12 0.02 93 1013.4
20181016133333 56 195 3.0 8.0 0.00 0.12 0.02 93 1013.3
20181016132824 56 212 5.0 9.0 0.00 0.12 0.02 93 1013.3
20181016132334 56 196 3.0 8.0 0.00 0.12 0.02 94 1013.3
20181016131825 56 139 3.0 7.0 0.00 0.12 0.02 94 1013.4
20181016131320 56 169 2.0 11.0 0.00 0.12 0.02 94 1013.4
20181016130830 56 146 4.0 11.0 0.00 0.12 0.02 94 1013.4
20181016130318 56 167 3.0 8.0 0.00 0.12 0.02 94 1013.4
20181016125829 56 164 1.0 6.0 0.00 0.12 0.02 94 1013.3
20181016125321 56 168 3.0 7.0 0.00 0.12 0.02 94 1013.2
20181016124831 56 183 2.0 7.0 0.00 0.12 0.02 94 1013.3
20181016124321 56 195 3.0 7.0 0.00 0.12 0.02 94 1013.3
20181016123832 57 156 3.0 8.0 0.00 0.12 0.02 95 1013.3
20181016123322 57 159 2.0 8.0 0.00 0.12 0.02 95 1013.3
20181016122816 57 175 4.0 13.0 0.00 0.12 0.02 96 1013.2
20181016122328 56 232 5.0 13.0 0.00 0.12 0.02 97 1013.3
20181016121819 56 150 3.0 10.0 0.00 0.12 0.02 97 1013.3
20181016121332 56 182 3.0 10.0 0.00 0.12 0.02 98 1013.2
20181016120822 56 142 3.0 7.0 0.00 0.12 0.02 98 1013.3
20181016120330 55 157 3.0 9.0 0.00 0.12 0.02 98 1013.3
20181016115821 55 150 4.0 9.0 0.00 0.12 0.02 98 1013.4
20181016115334 55 205 3.0 8.0 0.00 0.12 0.02 98 1013.4
20181016114829 55 173 4.0 9.0 0.00 0.12 0.02 98 1013.4
20181016114323 55 175 4.0 10.0 0.00 0.12 0.02 98 1013.4
20181016113833 55 173 5.0 10.0 0.00 0.12 0.02 98 1013.4
20181016113324 54 163 4.0 8.0 0.00 0.12 0.02 98 1013.5
20181016112835 54 176 4.0 10.0 0.00 0.12 0.02 98 1013.6
20181016112326 54 168 4.0 11.0 0.00 0.12 0.02 98 1013.6
20181016111817 54 165 5.0 11.0 0.00 0.12 0.02 98 1013.6
20181016111329 54 186 3.0 10.0 0.04 0.12 0.02 98 1013.6
20181016110823 54 169 4.0 6.0 0.04 0.12 0.02 98 1013.6
20181016110313 53 147 2.0 6.0 0.04 0.12 0.02 98 1013.7
20181016105827 53 180 3.0 8.0 0.04 0.12 0.02 98 1013.7
20181016105318 53 152 4.0 8.0 0.04 0.12 0.02 98 1013.8
20181016104829 53 140 4.0 7.0 0.04 0.12 0.02 98 1013.7
20181016104320 53 150 4.0 7.0 0.04 0.12 0.02 98 1013.8
20181016103833 53 153 4.0 7.0 0.04 0.12 0.02 98 1013.8
20181016103324 53 148 3.0 6.0 0.04 0.12 0.02 98 1013.8
20181016102819 53 158 3.0 6.0 0.04 0.12 0.02 98 1013.9
20181016102330 53 188 3.0 5.0 0.04 0.12 0.02 98 1013.9
20181016101821 53 164 1.0 5.0 0.04 0.12 0.02 98 1013.9
20181016101332 53 173 2.0 5.0 0.00 0.08 0.01 98 1013.9
20181016100822 52 150 2.0 5.0 0.00 0.08 0.01 98 1013.9
20181016100328 52 159 3.0 5.0 0.00 0.08 0.01 98 1013.9
20181016095819 52 180 2.0 5.0 0.00 0.08 0.01 98 1014.0
20181016095330 52 150 3.0 7.0 0.00 0.08 0.01 98 1014.0
20181016094820 52 185 3.0 7.0 0.00 0.08 0.01 98 1014.0
20181016094335 52 143 3.0 6.0 0.00 0.08 0.01 98 1014.0
20181016093826 52 161 2.0 4.0 0.00 0.08 0.01 98 1014.0
20181016093316 52 173 2.0 8.0 0.00 0.08 0.01 98 1014.0
20181016092827 52 227 3.0 8.0 0.00 0.08 0.01 98 1014.0
20181016092318 52 157 2.0 8.0 0.00 0.08 0.01 98 1014.1
20181016091829 52 142 3.0 5.0 0.00 0.08 0.01 98 1014.0
20181016091319 51 144 3.0 5.0 0.00 0.08 0.01 98 1013.9
20181016090830 51 153 2.0 6.0 0.00 0.08 0.01 98 1013.9
20181016090321 51 172 2.0 6.0 0.00 0.08 0.01 98 1013.9
20181016085832 51 203 1.0 5.0 0.00 0.12 0.01 98 1013.9
20181016085323 51 151 2.0 5.0 0.00 0.12 0.01 98 1013.9
20181016084817 51 169 2.0 4.0 0.00 0.12 0.01 98 1013.9
20181016084327 51 165 1.0 3.0 0.00 0.12 0.01 98 1013.9
20181016083818 50 165 1.0 3.0 0.00 0.12 0.01 98 1013.9
20181016083329 50 165 0.0 4.0 0.00 0.12 0.01 98 1014.0
20181016082820 50 165 2.0 4.0 0.00 0.12 0.01 98 1014.0
20181016082314 50 157 2.0 4.0 0.00 0.12 0.01 98 1014.0
20181016081828 50 154 1.0 4.0 0.00 0.12 0.01 98 1014.0
20181016081318 50 136 2.0 5.0 0.00 0.12 0.01 98 1014.1
20181016080829 50 158 2.0 6.0 0.00 0.12 0.01 98 1014.1
20181016080316 50 171 3.0 6.0 0.00 0.12 0.01 98 1014.1
20181016075826 50 178 3.0 5.0 0.00 0.12 0.01 98 1014.1
20181016075316 50 165 2.0 5.0 0.00 0.12 0.01 98 1014.1
20181016074827 50 169 2.0 6.0 0.00 0.12 0.01 98 1014.1
20181016074318 50 155 3.0 6.0 0.00 0.12 0.01 98 1014.1
20181016073835 50 172 2.0 6.0 0.00 0.12 0.01 98 1014.1
20181016073325 50 185 1.0 5.0 0.00 0.12 0.01 98 1014.0
20181016072816 50 169 2.0 4.0 0.00 0.12 0.01 98 1014.1
20181016072325 50 216 2.0 4.0 0.00 0.12 0.01 98 1014.0
20181016071816 50 175 1.0 4.0 0.00 0.12 0.01 98 1013.9
20181016071327 50 160 1.0 5.0 0.00 0.12 0.01 98 1013.8
20181016070818 50 150 2.0 5.0 0.00 0.12 0.01 98 1013.9
20181016070326 50 168 2.0 4.0 0.00 0.12 0.01 98 1014.0
20181016065821 50 173 2.0 5.0 0.00 0.16 0.01 98 1013.8
20181016065332 49 147 2.0 5.0 0.00 0.16 0.01 98 1013.7
20181016064822 49 179 2.0 7.0 0.00 0.16 0.01 98 1013.6
20181016064333 49 169 3.0 7.0 0.00 0.16 0.01 98 1013.7
20181016063824 49 145 2.0 6.0 0.00 0.16 0.01 98 1013.8
20181016063335 49 161 3.0 6.0 0.00 0.16 0.01 98 1013.8
20181016062826 49 157 1.0 5.0 0.00 0.16 0.01 98 1013.9
20181016062316 49 142 3.0 5.0 0.00 0.16 0.01 98 1013.9
20181016061829 49 164 2.0 4.0 0.00 0.16 0.01 98 1013.8
20181016061324 49 165 1.0 6.0 0.00 0.16 0.01 98 1013.8
20181016060814 49 164 2.0 6.0 0.00 0.16 0.01 98 1013.7
20181016060324 49 175 4.0 6.0 0.00 0.16 0.01 98 1013.6
20181016055835 49 176 4.0 6.0 0.00 0.16 0.01 98 1013.5
20181016055322 49 145 4.0 6.0 0.00 0.16 0.01 98 1013.7
20181016054832 49 154 2.0 4.0 0.00 0.16 0.01 98 1013.7
20181016054320 49 169 2.0 5.0 0.00 0.16 0.01 98 1013.7
20181016053830 49 148 2.0 5.0 0.00 0.16 0.01 98 1013.7
20181016053325 49 168 1.0 3.0 0.00 0.16 0.01 98 1013.7
20181016052818 49 168 2.0 4.0 0.00 0.16 0.01 98 1013.8
20181016052331 49 169 3.0 4.0 0.00 0.16 0.01 98 1013.9
20181016051821 49 165 2.0 5.0 0.00 0.16 0.01 98 1013.9
20181016051331 48 180 3.0 5.0 0.00 0.16 0.01 98 1013.8
20181016050821 48 160 3.0 7.0 0.00 0.16 0.01 98 1013.8
20181016050327 48 180 4.0 7.0 0.00 0.16 0.01 98 1013.8
20181016045819 48 162 2.0 3.0 0.00 0.16 0.01 98 1013.9
20181016045330 48 162 2.0 3.0 0.00 0.16 0.01 98 1014.0
20181016044823 48 162 1.0 3.0 0.00 0.16 0.01 98 1014.1
20181016044334 48 162 2.0 3.0 0.00 0.16 0.01 98 1014.0
20181016043824 48 162 1.0 4.0 0.00 0.16 0.01 98 1014.0
20181016043334 48 161 3.0 4.0 0.00 0.16 0.01 98 1014.0
20181016042825 48 161 2.0 5.0 0.00 0.16 0.01 98 1013.9
20181016042335 48 159 3.0 5.0 0.00 0.16 0.01 98 1014.0
20181016041825 48 161 3.0 5.0 0.00 0.16 0.01 98 1013.9
20181016041313 48 154 3.0 5.0 0.00 0.16 0.01 98 1013.9
20181016040831 48 173 2.0 5.0 0.00 0.16 0.01 98 1013.8
20181016040316 48 176 2.0 4.0 0.00 0.16 0.01 98 1013.8
20181016035825 48 154 3.0 4.0 0.00 0.16 0.01 98 1013.8
20181016035315 48 165 3.0 4.0 0.00 0.16 0.01 98 1013.8
20181016034826 48 157 2.0 4.0 0.00 0.16 0.01 98 1013.8
20181016034334 48 183 2.0 4.0 0.00 0.16 0.01 98 1013.9
20181016033825 48 158 2.0 3.0 0.00 0.16 0.01 98 1014.0
20181016033334 48 158 2.0 3.0 0.00 0.16 0.01 98 1014.1
20181016032823 48 158 2.0 3.0 0.00 0.16 0.01 98 1014.1
20181016032319 48 158 2.0 3.0 0.00 0.16 0.01 98 1014.1
20181016031829 48 146 1.0 3.0 0.00 0.16 0.01 98 1014.1
20181016031320 48 146 2.0 3.0 0.00 0.16 0.01 98 1014.1
20181016030830 48 110 2.0 3.0 0.00 0.16 0.01 98 1014.0
20181016030317 48 110 1.0 2.0 0.00 0.16 0.01 98 1014.1
20181016025827 48 110 0.0 1.0 0.00 0.16 0.01 98 1014.1
20181016025318 48 110 0.0 3.0 0.00 0.16 0.01 98 1014.0
20181016024828 48 110 1.0 3.0 0.00 0.16 0.01 98 1014.1
20181016024322 48 110 1.0 2.0 0.00 0.16 0.01 98 1014.1
20181016023832 48 110 1.0 2.0 0.00 0.16 0.01 98 1014.1
20181016023325 48 110 1.0 2.0 0.00 0.16 0.01 98 1014.1
20181016022834 48 81 1.0 2.0 0.00 0.16 0.01 98 1014.1
20181016022324 48 80 0.0 2.0 0.00 0.16 0.01 98 1014.1
20181016021835 48 80 0.0 2.0 0.00 0.16 0.01 98 1014.1
20181016021325 48 80 0.0 3.0 0.00 0.16 0.01 98 1014.1
20181016020834 48 80 1.0 3.0 0.00 0.16 0.01 98 1014.1
20181016020320 48 72 1.0 2.0 0.00 0.16 0.01 98 1014.2
20181016015832 48 72 1.0 3.0 0.00 0.16 0.01 98 1014.2
20181016015323 48 72 1.0 3.0 0.00 0.16 0.01 98 1014.2
20181016014833 48 72 2.0 3.0 0.00 0.16 0.01 98 1014.2
20181016014324 48 95 1.0 3.0 0.00 0.16 0.01 98 1014.3
20181016013833 48 95 2.0 3.0 0.00 0.16 0.01 98 1014.4
20181016013324 48 95 1.0 2.0 0.00 0.16 0.01 98 1014.5
20181016012834 48 95 1.0 2.0 0.04 0.16 0.01 98 1014.4
20181016012322 48 95 1.0 2.0 0.04 0.16 0.01 98 1014.5
20181016011816 48 95 1.0 3.0 0.04 0.16 0.01 98 1014.4
20181016011327 48 95 1.0 3.0 0.04 0.16 0.01 98 1014.6
20181016010817 48 94 1.0 2.0 0.04 0.16 0.01 98 1014.6
20181016010322 48 94 1.0 2.0 0.04 0.16 0.01 98 1014.6
20181016005833 48 94 1.0 2.0 0.04 0.16 0.01 98 1014.7
20181016005322 48 75 0.0 2.0 0.04 0.16 0.01 98 1014.7
20181016004831 48 78 1.0 3.0 0.04 0.16 0.01 98 1014.6
20181016004324 48 85 1.0 3.0 0.04 0.16 0.01 98 1014.5
20181016003833 48 63 1.0 3.0 0.04 0.16 0.01 98 1014.7
20181016003327 47 63 1.0 3.0 0.00 0.12 0.00 98 1014.7